| time (UTC) | temp F | wind direction | speed MPH | gust MPH | rain 1hr in | rain 24hr in | rain mn in | humidity % | barometer mb |
| 20260831221509 | 99 | 145 | 0.0 | 4.0 | 0.00 | 0.00 | 0.00 | 33 | 1010.2 |
| 20260831220008 | 98 | 122 | 1.0 | 8.0 | 0.00 | 0.00 | 0.00 | 34 | 1010.4 |
| 20260831214513 | 99 | 161 | 0.0 | 9.0 | 0.00 | 0.00 | 0.00 | 33 | 1010.4 |
| 20260831213006 | 98 | 132 | 0.0 | 8.0 | 0.00 | 0.00 | 0.00 | 34 | 1010.6 |
| 20260831211505 | 100 | 150 | 3.0 | 8.0 | 0.00 | 0.00 | 0.00 | 32 | 1010.7 |
| 20260831210004 | 99 | 161 | 0.0 | 4.0 | 0.00 | 0.00 | 0.00 | 32 | 1010.8 |
| 20260831204509 | 99 | 137 | 0.0 | 9.0 | 0.00 | 0.00 | 0.00 | 32 | 1011.0 |
| 20260831203002 | 99 | 125 | 0.0 | 10.0 | 0.00 | 0.00 | 0.00 | 34 | 1011.3 |
| 20260831201502 | 100 | 161 | 1.0 | 8.0 | 0.00 | 0.00 | 0.00 | 33 | 1011.5 |
| 20260831194633 | 100 | 136 | 1.0 | 8.0 | 0.00 | 0.00 | 0.00 | 34 | 1011.8 |
| 20260831193058 | 100 | 251 | 0.0 | 10.0 | 0.00 | 0.00 | 0.00 | 35 | 1012.2 |
| 20260831191558 | 99 | 151 | 2.0 | 11.0 | 0.00 | 0.00 | 0.00 | 35 | 1012.2 |
| 20260831190108 | 99 | 118 | 0.0 | 6.0 | 0.00 | 0.00 | 0.00 | 37 | 1012.2 |
| 20260831184618 | 99 | 115 | 1.0 | 7.0 | 0.00 | 0.00 | 0.00 | 35 | 1012.5 |
| 20260831183101 | 99 | 242 | 0.0 | 8.0 | 0.00 | 0.00 | 0.00 | 38 | 1012.6 |
| 20260831181549 | 98 | 137 | 1.0 | 7.0 | 0.00 | 0.00 | 0.00 | 37 | 1012.7 |
| 20260831180047 | 98 | 202 | 0.0 | 5.0 | 0.00 | 0.00 | 0.00 | 40 | 1013.1 |
| 20260831174549 | 97 | 132 | 1.0 | 5.0 | 0.00 | 0.00 | 0.00 | 41 | 1013.5 |
| 20260831173055 | 96 | 137 | 0.0 | 7.0 | 0.00 | 0.00 | 0.00 | 42 | 1013.6 |
| 20260831171538 | 96 | 127 | 0.0 | 5.0 | 0.00 | 0.00 | 0.00 | 42 | 1013.9 |
| 20260831170037 | 95 | 263 | 2.0 | 7.0 | 0.00 | 0.00 | 0.00 | 43 | 1013.8 |
| 20260831164537 | 95 | 148 | 0.0 | 3.0 | 0.00 | 0.00 | 0.00 | 45 | 1014.0 |
| 20260831163033 | 94 | 261 | 0.0 | 7.0 | 0.00 | 0.00 | 0.00 | 47 | 1014.1 |
| 20260831161528 | 93 | 261 | 0.0 | 4.0 | 0.00 | 0.00 | 0.00 | 47 | 1014.1 |
| 20260831160029 | 92 | 252 | 1.0 | 7.0 | 0.00 | 0.00 | 0.00 | 48 | 1014.1 |
| 20260831154521 | 91 | 180 | 0.0 | 4.0 | 0.00 | 0.00 | 0.00 | 49 | 1014.2 |
| 20260831153016 | 90 | 242 | 0.0 | 5.0 | 0.00 | 0.00 | 0.00 | 51 | 1014.1 |
| 20260831151512 | 89 | 249 | 0.0 | 4.0 | 0.00 | 0.00 | 0.00 | 55 | 1014.1 |
| 20260831150013 | 88 | 280 | 2.0 | 7.0 | 0.00 | 0.00 | 0.00 | 55 | 1014.0 |
| 20260831144512 | 87 | 253 | 2.0 | 7.0 | 0.00 | 0.00 | 0.00 | 58 | 1013.9 |
| 20260831143004 | 85 | 243 | 0.0 | 5.0 | 0.00 | 0.00 | 0.00 | 64 | 1014.0 |
| 20260831141503 | 84 | 253 | 0.0 | 4.0 | 0.00 | 0.00 | 0.00 | 66 | 1013.8 |
| 20260831140002 | 82 | 162 | 0.0 | 2.0 | 0.00 | 0.00 | 0.00 | 70 | 1013.9 |
| 20260831134502 | 81 | 156 | 0.0 | 3.0 | 0.00 | 0.00 | 0.00 | 71 | 1013.7 |
| 20260831133101 | 81 | 207 | 0.0 | 2.0 | 0.00 | 0.00 | 0.00 | 72 | 1013.7 |
| 20260831131558 | 80 | 153 | 0.0 | 0.0 | 0.00 | 0.00 | 0.00 | 73 | 1013.5 |
| 20260831130059 | 0 | 0.0 | 0.0 | 0.00 | 0.00 | 0.00 | 1013.3 | ||
| 20260831124552 | 0 | 0.0 | 0.0 | 0.00 | 0.00 | 0.00 | 1013.0 | ||
| 20260831123048 | 0 | 0.0 | 0.0 | 0.00 | 0.00 | 0.00 | 1012.8 | ||
| 20260831121544 | 0 | 0.0 | 0.0 | 0.00 | 0.00 | 0.00 | 1012.6 | ||
| 20260831120039 | 0 | 0.0 | 0.0 | 0.00 | 0.00 | 0.00 | 1012.3 | ||
| 20260831114635 | 80 | 175 | 0.0 | 0.0 | 0.00 | 0.00 | 0.00 | 72 | 1012.0 |
| 20260831113033 | 80 | 175 | 0.0 | 0.0 | 0.00 | 0.00 | 0.00 | 71 | 1011.9 |
| 20260831111540 | 80 | 175 | 0.0 | 0.0 | 0.00 | 0.00 | 0.00 | 70 | 1011.7 |
| 20260831110029 | 81 | 175 | 0.0 | 1.0 | 0.00 | 0.00 | 0.00 | 69 | 1011.6 |
| 20260831104531 | 81 | 175 | 0.0 | 0.0 | 0.00 | 0.00 | 0.00 | 69 | 1011.6 |
| 20260831103026 | 82 | 175 | 0.0 | 0.0 | 0.00 | 0.00 | 0.00 | 68 | 1011.6 |
| 20260831101524 | 82 | 198 | 0.0 | 1.0 | 0.00 | 0.00 | 0.00 | 67 | 1011.7 |
| 20260831100020 | 83 | 199 | 0.0 | 0.0 | 0.00 | 0.00 | 0.00 | 65 | 1011.6 |
| 20260831094523 | 84 | 199 | 0.0 | 0.0 | 0.00 | 0.00 | 0.00 | 64 | 1011.4 |
| 20260831093017 | 84 | 192 | 0.0 | 0.0 | 0.00 | 0.00 | 0.00 | 62 | 1011.4 |
| 20260831091515 | 84 | 192 | 0.0 | 0.0 | 0.00 | 0.00 | 0.00 | 60 | 1011.3 |
| 20260831090016 | 85 | 192 | 0.0 | 0.0 | 0.00 | 0.00 | 0.00 | 59 | 1011.1 |
| 20260831084528 | 85 | 191 | 0.0 | 0.0 | 0.00 | 0.00 | 0.00 | 58 | 1011.2 |
| 20260831083012 | 86 | 203 | 0.0 | 2.0 | 0.00 | 0.00 | 0.00 | 56 | 1011.1 |
| 20260831081520 | 86 | 240 | 0.0 | 4.0 | 0.00 | 0.00 | 0.00 | 56 | 1011.1 |
| 20260831080011 | 86 | 199 | 0.0 | 3.0 | 0.00 | 0.00 | 0.00 | 55 | 1010.9 |
| 20260831074530 | 85 | 242 | 1.0 | 6.0 | 0.00 | 0.00 | 0.00 | 54 | 1010.9 |
| 20260831073020 | 85 | 193 | 0.0 | 1.0 | 0.00 | 0.00 | 0.00 | 55 | 1010.9 |
| 20260831071508 | 84 | 136 | 0.0 | 0.0 | 0.00 | 0.00 | 0.00 | 58 | 1010.9 |
| 20260831070009 | 84 | 136 | 0.0 | 0.0 | 0.00 | 0.00 | 0.00 | 59 | 1010.8 |
| 20260831064520 | 84 | 136 | 0.0 | 0.0 | 0.00 | 0.00 | 0.00 | 58 | 1010.9 |
| 20260831063011 | 85 | 136 | 0.0 | 0.0 | 0.00 | 0.00 | 0.00 | 56 | 1010.9 |
| 20260831061503 | 85 | 136 | 0.0 | 0.0 | 0.00 | 0.00 | 0.00 | 56 | 1010.8 |
| 20260831060002 | 85 | 136 | 0.0 | 0.0 | 0.00 | 0.00 | 0.00 | 55 | 1010.9 |
| 20260831054601 | 85 | 136 | 0.0 | 0.0 | 0.00 | 0.00 | 0.00 | 55 | 1011.0 |
| 20260831053059 | 86 | 136 | 0.0 | 0.0 | 0.00 | 0.00 | 0.00 | 54 | 1010.9 |
| 20260831051556 | 86 | 136 | 0.0 | 0.0 | 0.00 | 0.00 | 0.00 | 54 | 1010.8 |
| 20260831050122 | 87 | 136 | 0.0 | 0.0 | 0.00 | 0.00 | 0.00 | 52 | 1010.7 |
| 20260831044553 | 87 | 136 | 0.0 | 0.0 | 0.00 | 0.00 | 0.00 | 52 | 1010.7 |
| 20260831043052 | 87 | 136 | 0.0 | 0.0 | 0.00 | 0.00 | 0.00 | 51 | 1010.7 |
| 20260831041551 | 87 | 136 | 0.0 | 0.0 | 0.00 | 0.00 | 0.00 | 53 | 1010.7 |
| 20260831040053 | 87 | 136 | 0.0 | 0.0 | 0.00 | 0.00 | 0.00 | 51 | 1010.7 |
| 20260831034551 | 88 | 136 | 0.0 | 0.0 | 0.00 | 0.00 | 0.00 | 49 | 1010.5 |
| 20260831033050 | 89 | 136 | 0.0 | 0.0 | 0.00 | 0.00 | 0.00 | 48 | 1010.4 |
| 20260831031554 | 89 | 136 | 0.0 | 0.0 | 0.00 | 0.00 | 0.00 | 47 | 1010.4 |
| 20260831030054 | 90 | 136 | 0.0 | 0.0 | 0.00 | 0.00 | 0.00 | 46 | 1010.4 |
| 20260831024549 | 90 | 136 | 0.0 | 0.0 | 0.00 | 0.00 | 0.00 | 45 | 1010.2 |
| 20260831023049 | 91 | 136 | 0.0 | 0.0 | 0.00 | 0.00 | 0.00 | 45 | 1010.0 |
| 20260831021548 | 91 | 136 | 0.0 | 0.0 | 0.00 | 0.00 | 0.00 | 43 | 1009.8 |
| 20260831020048 | 92 | 136 | 0.0 | 0.0 | 0.00 | 0.00 | 0.00 | 42 | 1009.6 |
| 20260831014551 | 93 | 136 | 0.0 | 0.0 | 0.00 | 0.00 | 0.00 | 41 | 1009.3 |
| 20260831013047 | 93 | 136 | 0.0 | 2.0 | 0.00 | 0.00 | 0.00 | 40 | 1009.2 |
| 20260831011546 | 94 | 136 | 0.0 | 0.0 | 0.00 | 0.00 | 0.00 | 40 | 1009.1 |
| 20260831010046 | 94 | 136 | 0.0 | 0.0 | 0.00 | 0.00 | 0.00 | 40 | 1009.1 |
| 20260831004547 | 95 | 136 | 0.0 | 0.0 | 0.00 | 0.00 | 0.00 | 40 | 1009.0 |
| 20260831003046 | 96 | 136 | 0.0 | 0.0 | 0.00 | 0.00 | 0.00 | 39 | 1009.1 |
| 20260831001544 | 96 | 138 | 0.0 | 9.0 | 0.00 | 0.00 | 0.00 | 39 | 1009.1 |
| 20260831000054 | 97 | 192 | 0.0 | 1.0 | 0.00 | 0.00 | 0.00 | 38 | 1009.1 |
| 20260830234548 | 98 | 201 | 0.0 | 3.0 | 0.00 | 0.00 | 0.00 | 36 | 1009.2 |
| 20260830233054 | 99 | 113 | 0.0 | 4.0 | 0.00 | 0.00 | 0.00 | 36 | 1009.2 |
| 20260830231541 | 99 | 105 | 0.0 | 2.0 | 0.00 | 0.00 | 0.00 | 36 | 1009.2 |
| 20260830230039 | 99 | 136 | 1.0 | 7.0 | 0.00 | 0.00 | 0.00 | 34 | 1009.2 |
| 20260830224538 | 100 | 119 | 2.0 | 7.0 | 0.00 | 0.00 | 0.00 | 33 | 1009.4 |
| 20260830223037 | 100 | 261 | 0.0 | 6.0 | 0.00 | 0.00 | 0.00 | 32 | 1009.3 |